• En España
  • Lista de países
  • Para 7 días
  • Temperatura del agua
  • Mapa Satelital
  • El tiempo en el mapa
  • Informadores
  • user-avatar
    Iniciar sesión

    Tiempo cada hora Alicante

    Hoy, 23 Noviembre, Jueves

    Tiempo Temperatura Precipitaciones Viento Presión Humedad
    00:00 +12°C° 0 mm 3 mps 761 mmHg 60%
    01:00 +12°C° 0 mm 3 mps 761 mmHg 59%
    02:00 +12°C° 0 mm 3 mps 761 mmHg 58%
    03:00 +12°C° 0 mm 3 mps 761 mmHg 57%
    04:00 +12°C° 0 mm 3 mps 761 mmHg 53%
    05:00 +13°C° 0 mm 2 mps 761 mmHg 49%
    06:00 +12°C° 0 mm 2 mps 762 mmHg 45%
    07:00 +15°C° 0 mm 2 mps 762 mmHg 38%
    08:00 +17°C° 0 mm 2 mps 762 mmHg 32%
    09:00 +19°C° 0 mm 2 mps 763 mmHg 26%
    10:00 +21°C° 0 mm 2 mps 763 mmHg 24%
    11:00 +22°C° 0 mm 3 mps 763 mmHg 22%
    12:00 +25°C° 0 mm 3 mps 763 mmHg 20%
    13:00 +25°C° 0 mm 3 mps 763 mmHg 20%
    14:00 +26°C° 0 mm 3 mps 762 mmHg 20%
    15:00 +26°C° 0 mm 4 mps 762 mmHg 20%
    16:00 +24°C° 0 mm 3 mps 762 mmHg 25%
    17:00 +20°C° 0 mm 3 mps 763 mmHg 30%
    18:00 +18°C° 0 mm 3 mps 763 mmHg 34%
    19:00 +17°C° 0 mm 3 mps 763 mmHg 35%
    20:00 +17°C° 0 mm 3 mps 763 mmHg 36%
    21:00 +16°C° 0 mm 3 mps 764 mmHg 37%
    22:00 +16°C° 0 mm 3 mps 764 mmHg 38%
    23:00 +15°C° 0 mm 2 mps 764 mmHg 38%

    Mañana, 24 Noviembre, Viernes

    Tiempo Temperatura Precipitaciones Viento Presión Humedad
    00:00 +15°C° 0 mm 2 mps 764 mmHg 39%
    01:00 +15°C° 0 mm 2 mps 763 mmHg 41%
    02:00 +14°C° 0 mm 2 mps 763 mmHg 43%
    03:00 +14°C° 0 mm 2 mps 763 mmHg 45%
    04:00 +14°C° 0 mm 2 mps 763 mmHg 45%
    05:00 +14°C° 0 mm 2 mps 763 mmHg 46%
    06:00 +14°C° 0 mm 2 mps 763 mmHg 46%
    07:00 +16°C° 0 mm 2 mps 764 mmHg 41%
    08:00 +18°C° 0 mm 2 mps 764 mmHg 35%
    09:00 +21°C° 0 mm 2 mps 764 mmHg 29%
    10:00 +23°C° 0 mm 2 mps 764 mmHg 26%
    11:00 +24°C° 0 mm 2 mps 764 mmHg 24%
    12:00 +25°C° 0 mm 2 mps 764 mmHg 21%
    13:00 +26°C° 0 mm 2 mps 763 mmHg 22%
    14:00 +26°C° 0 mm 3 mps 763 mmHg 22%
    15:00 +26°C° 0 mm 3 mps 763 mmHg 23%
    16:00 +22°C° 0 mm 3 mps 763 mmHg 30%
    17:00 +20°C° 0 mm 3 mps 763 mmHg 38%
    18:00 +17°C° 0 mm 3 mps 763 mmHg 45%
    19:00 +17°C° 0 mm 3 mps 763 mmHg 48%
    20:00 +16°C° 0 mm 3 mps 763 mmHg 51%
    21:00 +14°C° 0 mm 3 mps 763 mmHg 54%
    22:00 +14°C° 0 mm 3 mps 763 mmHg 55%
    23:00 +14°C° 0 mm 3 mps 763 mmHg 55%

    Pasado mañana, 25 Noviembre, Sábado

    Tiempo Temperatura Precipitaciones Viento Presión Humedad
    00:00 +14°C° 0 mm 3 mps 763 mmHg 56%
    01:00 +14°C° 0 mm 3 mps 763 mmHg 54%
    02:00 +14°C° 0 mm 3 mps 763 mmHg 52%
    03:00 +13°C° 0 mm 3 mps 763 mmHg 50%
    04:00 +13°C° 0 mm 3 mps 763 mmHg 48%
    05:00 +14°C° 0 mm 3 mps 763 mmHg 46%
    06:00 +14°C° 0 mm 3 mps 763 mmHg 44%
    07:00 +16°C° 0 mm 3 mps 763 mmHg 39%
    08:00 +18°C° 0 mm 3 mps 764 mmHg 35%
    09:00 +20°C° 0 mm 3 mps 764 mmHg 30%
    10:00 +21°C° 0 mm 3 mps 764 mmHg 28%
    11:00 +23°C° 0 mm 4 mps 764 mmHg 25%
    12:00 +25°C° 0 mm 4 mps 764 mmHg 23%
    13:00 +26°C° 0 mm 4 mps 763 mmHg 23%
    14:00 +26°C° 0 mm 3 mps 763 mmHg 23%
    15:00 +26°C° 0 mm 3 mps 763 mmHg 22%
    16:00 +24°C° 0 mm 3 mps 764 mmHg 26%
    17:00 +21°C° 0 mm 3 mps 764 mmHg 30%
    18:00 +20°C° 0 mm 3 mps 765 mmHg 34%
    19:00 +19°C° 0 mm 3 mps 765 mmHg 36%
    20:00 +19°C° 0 mm 3 mps 766 mmHg 38%
    21:00 +19°C° 0 mm 3 mps 766 mmHg 39%
    22:00 +18°C° 0 mm 4 mps 766 mmHg 51%
    23:00 +17°C° 0 mm 4 mps 767 mmHg 62%

    26 Noviembre, Domingo

    Tiempo Temperatura Precipitaciones Viento Presión Humedad
    00:00 +15°C° 0 mm 4 mps 767 mmHg 74%
    01:00 +15°C° 0 mm 4 mps 767 mmHg 77%
    02:00 +14°C° 0 mm 4 mps 767 mmHg 81%
    03:00 +14°C° 0 mm 5 mps 767 mmHg 84%
    04:00 +13°C° 0 mm 4 mps 767 mmHg 86%
    05:00 +13°C° 0 mm 4 mps 767 mmHg 87%
    06:00 +13°C° 0 mm 4 mps 767 mmHg 88%
    07:00 +14°C° 0,1 mm 4 mps 768 mmHg 84%
    08:00 +15°C° 0,1 mm 4 mps 768 mmHg 80%
    09:00 +15°C° 0,1 mm 4 mps 769 mmHg 76%
    10:00 +17°C° 0,1 mm 4 mps 769 mmHg 73%
    11:00 +18°C° 0,1 mm 4 mps 769 mmHg 70%
    12:00 +19°C° 0,1 mm 4 mps 769 mmHg 67%
    13:00 +19°C° 0 mm 5 mps 768 mmHg 68%
    14:00 +19°C° 0 mm 5 mps 768 mmHg 69%
    15:00 +19°C° 0 mm 5 mps 768 mmHg 70%
    16:00 +17°C° 0,1 mm 5 mps 768 mmHg 76%
    17:00 +16°C° 0,1 mm 5 mps 768 mmHg 83%
    18:00 +15°C° 0,1 mm 4 mps 768 mmHg 89%
    19:00 +15°C° 0,1 mm 4 mps 769 mmHg 89%
    20:00 +15°C° 0,1 mm 4 mps 769 mmHg 89%
    21:00 +15°C° 0,1 mm 4 mps 769 mmHg 89%
    22:00 +15°C° 0,1 mm 4 mps 769 mmHg 90%
    23:00 +16°C° 0,1 mm 3 mps 768 mmHg 90%

    27 Noviembre, Lunes

    Tiempo Temperatura Precipitaciones Viento Presión Humedad
    00:00 +16°C° 0,1 mm 3 mps 768 mmHg 91%
    01:00 +16°C° 0,1 mm 3 mps 768 mmHg 91%
    02:00 +16°C° 0,1 mm 3 mps 768 mmHg 91%
    03:00 +16°C° 0,1 mm 3 mps 767 mmHg 91%
    04:00 +16°C° 0,1 mm 3 mps 767 mmHg 92%
    05:00 +16°C° 0,1 mm 3 mps 767 mmHg 93%
    06:00 +16°C° 0,1 mm 3 mps 767 mmHg 93%
    07:00 +16°C° 0,1 mm 3 mps 767 mmHg 91%
    08:00 +16°C° 0,1 mm 3 mps 767 mmHg 89%
    09:00 +17°C° 0,1 mm 3 mps 767 mmHg 86%
    10:00 +17°C° 0,1 mm 3 mps 767 mmHg 83%
    11:00 +18°C° 0,1 mm 3 mps 767 mmHg 81%
    12:00 +18°C° 0,1 mm 3 mps 766 mmHg 78%
    13:00 +18°C° 0 mm 3 mps 766 mmHg 77%
    14:00 +19°C° 0 mm 3 mps 765 mmHg 75%
    15:00 +19°C° 0 mm 3 mps 765 mmHg 74%
    16:00 +18°C° 0 mm 3 mps 765 mmHg 79%
    17:00 +17°C° 0 mm 3 mps 765 mmHg 85%
    18:00 +16°C° 0 mm 3 mps 765 mmHg 91%
    19:00 +16°C° 0 mm 3 mps 765 mmHg 92%
    20:00 +16°C° 0 mm 2 mps 765 mmHg 93%
    21:00 +16°C° 0 mm 2 mps 765 mmHg 94%
    22:00 +16°C° 0 mm 2 mps 765 mmHg 94%
    23:00 +16°C° 0 mm 2 mps 765 mmHg 94%

    28 Noviembre, Martes

    Tiempo Temperatura Precipitaciones Viento Presión Humedad
    00:00 +15°C° 0 mm 2 mps 764 mmHg 95%
    01:00 +15°C° 0 mm 2 mps 764 mmHg 95%
    02:00 +14°C° 0 mm 1 mps 764 mmHg 95%
    03:00 +14°C° 0 mm 1 mps 763 mmHg 96%
    04:00 +14°C° 0 mm 1 mps 763 mmHg 96%
    05:00 +14°C° 0 mm 1 mps 763 mmHg 96%
    06:00 +15°C° 0 mm 1 mps 762 mmHg 95%
    07:00 +15°C° 0 mm 1 mps 762 mmHg 92%
    08:00 +16°C° 0 mm 2 mps 762 mmHg 88%
    09:00 +17°C° 0 mm 2 mps 762 mmHg 85%
    10:00 +17°C° 0,2 mm 2 mps 762 mmHg 83%
    11:00 +17°C° 0,2 mm 3 mps 761 mmHg 81%
    12:00 +17°C° 0,2 mm 3 mps 760 mmHg 79%
    13:00 +17°C° 0,2 mm 3 mps 760 mmHg 78%
    14:00 +18°C° 0,2 mm 3 mps 759 mmHg 78%
    15:00 +18°C° 0,2 mm 3 mps 758 mmHg 77%
    16:00 +17°C° 0,2 mm 3 mps 758 mmHg 81%
    17:00 +17°C° 0,2 mm 3 mps 758 mmHg 86%
    18:00 +16°C° 0,2 mm 3 mps 757 mmHg 90%
    19:00 +16°C° 0,5 mm 3 mps 757 mmHg 92%
    20:00 +15°C° 0,5 mm 4 mps 757 mmHg 93%
    21:00 +15°C° 0,5 mm 4 mps 756 mmHg 94%
    22:00 +15°C° 0,4 mm 4 mps 756 mmHg 94%
    23:00 +15°C° 0,4 mm 4 mps 755 mmHg 94%
    Mostrar más